FALCON 9 DEB (44297 NORAD) Tracking and Keplerian Element Data

This shows tracking and keplerian element data for the satellite.

Feedback or suggestion? Click here.




ElementValue
Catalog44297
NameFALCON 9 DEB
Epoch Orbit587
Epoch Day174.14590934
Epoch Year2019
RAAN32.423
Inclination53.0043
Eccentricity0.0004813
Argument of Perigee2.4774
Mean Anonmoly357.6253
Mean Motion15.43475746
Decay Rate9.41E-06
L11 44297U 19029BQ 19174.14590934 .00000941 00000-0 29934-4 0 9999
L22 44297 53.0043 32.4230 0004813 2.4774 357.6253 15.43475746 5874

Live tracking and technical data element details for FALCON 9 DEB (NORAD 44297). FALCON 9 DEB can be tracked NOW for your location showing map with azimuth and elevation plus other details from your city location.

Track the satellite on the map from your city or location and see movement details for azimuth, elevation, latitude, longitude, range, height, and movement on the map or in text.







IsCatalogInMostPopularTable: catalog: 44297, numindb: 48
Update: records affected: 1



GetName: 44297 FALCON 9 DEB

Hit Count: updated at: Mon, 15 Jul 2019 22:08:41 GMT